GW2254 Weather Reports


time (UTC)temp
C
wind
direction
speed
KPH
gust
KPH
rain 1hr
cm
rain 24hr
cm
rain mn
cm
humidity
%
barometer
mb
20260507140521 13 47 0.0 3.2 0.00 0.51 0.48 86 1012.0
20260507140020 13 44 0.0 4.8 0.00 0.51 0.48 86 1012.0
20260507135518 13 44 1.6 8.0 0.00 0.51 0.48 86 1012.1
20260507135021 13 335 1.6 8.0 0.00 0.51 0.48 86 1012.0
20260507134519 13 323 1.6 4.8 0.00 0.51 0.48 86 1011.7
20260507134016 13 116 0.0 3.2 0.00 0.51 0.48 86 1011.8
20260507133516 13 116 0.0 3.2 0.00 0.51 0.48 86 1011.8
20260507133016 13 116 0.0 4.8 0.00 0.51 0.48 86 1011.5
20260507132519 13 116 0.0 4.8 0.00 0.51 0.48 86 1011.5
20260507132015 13 115 0.0 3.2 0.03 0.51 0.48 86 1011.7
20260507131525 13 114 0.0 1.6 0.03 0.51 0.48 85 1011.8
20260507131014 13 114 0.0 8.0 0.05 0.51 0.48 85 1011.7
20260507130514 13 114 0.0 8.0 0.05 0.51 0.48 85 1011.7
20260507130014 13 158 0.0 1.6 0.05 0.51 0.48 85 1011.5
20260507125512 13 158 0.0 4.8 0.05 0.51 0.48 85 1011.6
20260507125013 13 123 0.0 4.8 0.05 0.51 0.48 84 1011.2
20260507124517 13 115 0.0 1.6 0.05 0.51 0.48 84 1011.3
20260507124011 13 115 0.0 6.4 0.05 0.51 0.48 84 1011.3
20260507123512 13 115 0.0 4.8 0.08 0.51 0.48 84 1011.4
20260507123010 13 334 0.0 3.2 0.08 0.51 0.48 84 1011.5
20260507122511 13 325 0.0 4.8 0.08 0.51 0.48 84 1011.5
20260507122010 13 329 1.6 4.8 0.05 0.48 0.46 84 1011.4
20260507121509 14 47 0.0 3.2 0.08 0.48 0.46 83 1011.3
20260507121009 14 47 0.0 4.8 0.05 0.46 0.43 83 1011.4
20260507120508 14 47 0.0 6.4 0.10 0.46 0.43 83 1011.5
20260507120025 14 48 0.0 6.4 0.10 0.46 0.43 83 1011.6
20260507115507 14 127 0.0 4.8 0.10 0.46 0.43 82 1011.4
20260507115008 14 107 0.0 4.8 0.10 0.46 0.43 82 1011.1
20260507114506 14 57 0.0 8.0 0.10 0.46 0.43 82 1011.2
20260507114006 14 58 0.0 8.0 0.13 0.46 0.43 81 1011.2
20260507113506 14 139 0.0 4.8 0.10 0.43 0.41 81 1011.6
20260507113024 14 139 0.0 4.8 0.10 0.43 0.41 81 1011.5
20260507112510 14 119 0.0 3.2 0.13 0.43 0.41 81 1011.5
20260507112005 15 125 0.0 6.4 0.13 0.43 0.41 81 1011.3
20260507111503 15 93 0.0 6.4 0.13 0.41 0.38 81 1011.3
20260507111001 15 88 1.6 6.4 0.13 0.41 0.38 81 1011.3
20260507110500 15 132 0.0 11.3 0.08 0.36 0.33 81 1011.3
20260507110106 15 76 1.6 11.3 0.08 0.36 0.33 81 1011.2
20260507105559 15 123 0.0 3.2 0.08 0.36 0.33 81 1011.1
20260507105057 15 102 0.0 1.6 0.10 0.36 0.33 81 1011.0
20260507104559 15 102 0.0 1.6 0.13 0.36 0.33 81 1010.9
20260507104100 15 102 0.0 3.2 0.10 0.33 0.30 80 1010.7
20260507103556 15 102 0.0 3.2 0.13 0.33 0.30 80 1010.6
20260507103055 16 101 0.0 1.6 0.18 0.33 0.30 80 1010.7
20260507102554 16 328 0.0 0.0 0.15 0.30 0.28 80 1010.6
20260507102054 16 329 0.0 1.6 0.18 0.30 0.28 80 1010.6
20260507101601 16 327 0.0 3.2 0.23 0.28 0.25 80 1010.8
20260507101054 16 326 0.0 6.4 0.23 0.28 0.25 80 1010.7
20260507100551 16 87 0.0 3.2 0.23 0.28 0.25 79 1010.6
20260507100051 16 360 0.0 3.2 0.23 0.28 0.25 79 1010.6
20260507095549 16 81 0.0 3.2 0.23 0.28 0.25 79 1010.7
20260507095051 17 85 0.0 4.8 0.20 0.25 0.23 79 1010.6
20260507094554 17 89 0.0 6.4 0.20 0.23 0.20 79 1010.5
20260507094046 17 78 0.0 3.2 0.20 0.23 0.20 80 1010.5
20260507093545 17 5 0.0 4.8 0.18 0.20 0.18 80 1010.4
20260507093043 18 5 1.6 16.1 0.13 0.15 0.13 80 1010.3
20260507092542 18 69 3.2 16.1 0.13 0.15 0.13 81 1010.3
20260507092044 18 106 1.6 11.3 0.08 0.10 0.08 82 1010.2
20260507091544 18 195 0.0 0.0 0.03 0.05 0.03 81 1009.8
20260507091040 18 195 0.0 0.0 0.03 0.05 0.03 81 1009.7
20260507090541 18 195 0.0 0.0 0.03 0.05 0.03 81 1009.7
20260507090044 18 195 0.0 0.0 0.03 0.05 0.03 81 1009.5
20260507085641 18 195 0.0 0.0 0.03 0.05 0.03 81 1009.4
20260507085041 19 195 0.0 0.0 0.03 0.05 0.03 81 1009.5
20260507084539 19 195 0.0 0.0 0.00 0.03 0.00 81 1009.3
20260507084040 19 195 0.0 4.8 0.00 0.03 0.00 80 1009.3
20260507083538 19 195 0.0 4.8 0.00 0.03 0.00 80 1009.4
20260507083038 19 195 0.0 4.8 0.00 0.03 0.00 80 1009.2
20260507082538 19 195 0.0 4.8 0.00 0.03 0.00 80 1009.3
20260507082038 19 195 0.0 0.0 0.00 0.03 0.00 80 1009.3
20260507081544 19 195 0.0 0.0 0.00 0.03 0.00 80 1009.5
20260507081037 19 195 0.0 0.0 0.00 0.03 0.00 80 1009.6
20260507080539 19 195 0.0 0.0 0.00 0.03 0.00 80 1009.1
20260507080038 19 195 0.0 0.0 0.00 0.03 0.00 80 1009.1
20260507075535 19 195 0.0 0.0 0.00 0.03 0.00 80 1009.2
20260507075035 19 195 0.0 9.7 0.00 0.03 0.00 80 1009.2
20260507074535 19 195 0.0 9.7 0.00 0.03 0.00 80 1009.3
20260507074034 19 182 3.2 9.7 0.00 0.03 0.00 80 1009.4
20260507073534 19 203 0.0 4.8 0.00 0.03 0.00 79 1009.6
20260507073034 19 203 0.0 8.0 0.00 0.03 0.00 79 1009.5
20260507072534 19 234 0.0 8.0 0.00 0.03 0.00 79 1009.6
20260507072033 19 202 0.0 14.5 0.00 0.03 0.00 79 1009.4
20260507071536 19 196 1.6 14.5 0.00 0.03 0.00 79 1009.5
20260507071033 19 193 1.6 12.9 0.00 0.03 0.00 79 1009.5
20260507070535 19 181 3.2 12.9 0.00 0.03 0.00 79 1009.3
20260507070036 19 199 3.2 12.9 0.00 0.03 0.00 78 1009.2
20260507065530 19 158 1.6 11.3 0.00 0.03 0.00 78 1009.2
20260507065035 20 200 3.2 11.3 0.00 0.03 0.00 78 1009.2
20260507064540 20 188 3.2 8.0 0.00 0.03 0.00 78 1009.2
20260507064030 20 209 1.6 9.7 0.00 0.03 0.00 78 1009.2
20260507063528 20 206 1.6 8.0 0.00 0.03 0.00 77 1009.1
20260507063028 20 196 1.6 9.7 0.00 0.03 0.00 77 1009.0
20260507062531 20 195 1.6 9.7 0.00 0.03 0.00 77 1008.9
20260507062027 20 5 0.0 9.7 0.00 0.03 0.00 77 1008.8
20260507061532 20 214 1.6 14.5 0.00 0.03 0.00 76 1009.1
20260507061024 20 205 0.0 16.1 0.00 0.03 0.00 76 1009.2
20260507060523 21 190 3.2 16.1 0.00 0.03 0.00 75 1009.4
20260507060022 21 202 3.2 16.1 0.00 0.03 0.00 74 1009.7
20260507055522 21 212 1.6 19.3 0.00 0.03 0.00 74 1009.8
20260507055021 21 215 4.8 19.3 0.00 0.03 0.00 73 1009.8
20260507054522 21 224 11.3 17.7 0.00 0.03 0.00 73 1009.8
20260507054022 21 192 6.4 16.1 0.00 0.03 0.00 73 1010.1
20260507053520 21 226 6.4 16.1 0.00 0.03 0.00 73 1010.1
20260507053023 21 205 6.4 17.7 0.00 0.03 0.00 73 1010.3
20260507052518 21 198 3.2 11.3 0.00 0.03 0.00 73 1010.5
20260507052022 21 182 3.2 11.3 0.00 0.03 0.00 73 1010.7
20260507051519 21 221 0.0 9.7 0.00 0.03 0.00 73 1010.6
20260507051022 21 235 0.0 9.7 0.00 0.03 0.00 73 1010.6
20260507050518 21 184 3.2 14.5 0.00 0.03 0.00 73 1010.6
20260507050021 21 179 4.8 14.5 0.00 0.03 0.00 72 1010.7
20260507045517 21 193 3.2 9.7 0.00 0.03 0.00 72 1010.7
20260507045016 21 193 3.2 8.0 0.00 0.03 0.00 72 1010.8
20260507044516 21 190 0.0 6.4 0.00 0.03 0.00 72 1010.8
20260507044016 21 176 0.0 6.4 0.00 0.03 0.00 72 1010.7
20260507043515 21 182 0.0 9.7 0.00 0.03 0.00 72 1010.8
20260507043015 20 182 1.6 9.7 0.00 0.03 0.00 72 1010.7
20260507042514 20 212 1.6 14.5 0.00 0.03 0.00 73 1010.5
20260507042013 20 205 3.2 16.1 0.00 0.03 0.00 73 1010.2
20260507041512 20 227 6.4 16.1 0.00 0.03 0.00 73 1010.2
20260507041012 20 198 1.6 11.3 0.00 0.03 0.00 73 1010.5
20260507040511 20 209 1.6 11.3 0.00 0.03 0.00 73 1010.3
20260507040010 20 161 0.0 4.8 0.00 0.03 0.03 73 1010.5
20260507035510 20 159 0.0 4.8 0.00 0.03 0.03 73 1010.5
20260507035011 20 158 0.0 8.0 0.00 0.03 0.03 73 1010.6
20260507034511 20 175 0.0 4.8 0.00 0.03 0.03 73 1010.6
20260507034009 20 160 0.0 4.8 0.00 0.03 0.03 74 1010.7
20260507033511 20 163 0.0 9.7 0.00 0.03 0.03 74 1010.6
20260507033009 20 190 3.2 9.7 0.00 0.03 0.03 74 1010.6
20260507032508 20 209 1.6 11.3 0.00 0.03 0.03 74 1010.3
20260507032009 20 197 1.6 11.3 0.00 0.03 0.03 74 1010.2
20260507031508 20 192 3.2 11.3 0.00 0.03 0.03 74 1010.2
20260507031013 20 194 1.6 11.3 0.00 0.03 0.03 74 1010.1
20260507030508 20 178 0.0 9.7 0.00 0.03 0.03 74 1010.4
20260507030008 20 194 1.6 9.7 0.00 0.03 0.03 74 1010.5
20260507025506 20 164 0.0 3.2 0.00 0.03 0.03 73 1010.4
20260507025007 20 164 0.0 3.2 0.00 0.03 0.03 73 1010.2
20260507024506 20 163 0.0 3.2 0.00 0.03 0.03 73 1010.4
20260507024009 20 163 0.0 9.7 0.00 0.03 0.03 73 1010.5
20260507023506 20 163 1.6 9.7 0.00 0.03 0.03 73 1010.6
20260507023006 20 200 0.0 3.2 0.00 0.03 0.03 72 1010.7
20260507022507 20 200 0.0 6.4 0.00 0.03 0.03 72 1010.8
20260507022005 20 200 0.0 6.4 0.00 0.03 0.03 72 1010.6
20260507021506 20 200 1.6 3.2 0.00 0.03 0.03 71 1010.7
20260507021007 20 200 0.0 3.2 0.00 0.03 0.03 71 1010.7
20260507020506 20 200 0.0 6.4 0.00 0.03 0.03 71 1010.7
20260507020006 20 194 0.0 3.2 0.00 0.03 0.03 71 1010.6
20260507015504 20 194 0.0 4.8 0.00 0.03 0.03 71 1010.6
20260507015004 20 194 0.0 6.4 0.00 0.03 0.03 71 1010.6
20260507014504 20 192 0.0 6.4 0.00 0.03 0.03 71 1010.7
20260507014005 20 208 0.0 4.8 0.00 0.03 0.03 70 1010.7
20260507013504 21 208 1.6 4.8 0.00 0.03 0.03 70 1010.7
20260507013010 21 208 0.0 4.8 0.00 0.03 0.03 70 1010.7
20260507012504 21 208 0.0 6.4 0.00 0.03 0.03 70 1010.8
20260507012004 21 217 1.6 6.4 0.00 0.03 0.03 69 1010.7
20260507011505 21 217 0.0 4.8 0.00 0.03 0.03 69 1010.4
20260507011005 21 226 0.0 3.2 0.00 0.03 0.03 68 1010.6
20260507010503 21 227 0.0 3.2 0.00 0.03 0.03 68 1010.5
20260507010010 21 227 0.0 1.6 0.00 0.03 0.03 68 1010.6
20260507005503 21 227 0.0 4.8 0.00 0.03 0.03 68 1010.6
20260507005002 21 240 0.0 11.3 0.00 0.03 0.03 67 1010.6
20260507004502 21 204 1.6 11.3 0.00 0.03 0.03 67 1010.7
20260507004002 21 196 0.0 9.7 0.00 0.03 0.03 67 1010.6
20260507003502 21 201 4.8 9.7 0.00 0.03 0.03 67 1010.5
20260507003002 21 188 4.8 9.7 0.00 0.03 0.03 67 1010.6
20260507002502 21 202 3.2 9.7 0.00 0.03 0.03 66 1010.6
20260507002002 22 204 3.2 9.7 0.00 0.03 0.03 66 1010.6
20260507001501 22 209 4.8 11.3 0.00 0.03 0.03 66 1010.5
20260507001001 22 200 1.6 9.7 0.00 0.03 0.03 65 1010.4
20260507000501 22 208 3.2 9.7 0.00 0.03 0.03 65 1010.4
20260507000002 22 178 0.0 9.7 0.00 0.03 0.03 64 1010.3
20260506235501 22 203 1.6 12.9 0.00 0.03 0.03 64 1010.3
20260506235001 22 195 3.2 12.9 0.00 0.03 0.03 64 1010.2
20260506234608 22 201 1.6 9.7 0.00 0.03 0.03 64 1010.3
20260506234102 22 191 3.2 9.7 0.00 0.03 0.03 64 1010.4
20260506233601 22 248 3.2 16.1 0.00 0.03 0.03 63 1010.4
20260506233109 22 200 1.6 16.1 0.00 0.03 0.03 63 1010.3
20260506232559 22 180 1.6 11.3 0.00 0.03 0.03 63 1010.3
20260506232100 22 215 3.2 11.3 0.00 0.03 0.03 63 1010.3
20260506231600 22 189 3.2 11.3 0.00 0.03 0.03 63 1010.1
20260506231100 22 191 1.6 11.3 0.00 0.03 0.03 63 1010.0
20260506230559 22 195 1.6 11.3 0.00 0.03 0.03 63 1010.1
20260506230059 22 197 1.6 11.3 0.00 0.03 0.03 63 1010.0
20260506225601 23 204 4.8 12.9 0.00 0.03 0.03 62 1010.0
20260506225059 23 207 1.6 12.9 0.00 0.03 0.03 62 1010.0
20260506224613 23 196 3.2 11.3 0.00 0.03 0.03 62 1010.0
20260506224057 23 203 0.0 11.3 0.00 0.03 0.03 62 1010.0
20260506223557 23 223 3.2 9.7 0.00 0.03 0.03 62 1010.0
20260506223059 23 176 1.6 9.7 0.00 0.03 0.03 62 1010.0
20260506222557 23 194 1.6 9.7 0.00 0.03 0.03 62 1010.0
20260506222058 23 202 1.6 11.3 0.00 0.03 0.03 62 1010.0
20260506221555 23 195 4.8 12.9 0.00 0.03 0.03 62 1010.1
20260506221053 23 188 3.2 12.9 0.00 0.03 0.03 62 1010.1
20260506220552 23 208 1.6 9.7 0.00 0.03 0.03 62 1010.2
20260506220104 23 196 4.8 9.7 0.00 0.03 0.03 62 1010.2
20260506215551 23 230 0.0 9.7 0.00 0.03 0.03 63 1010.4
20260506215051 23 184 0.0 9.7 0.00 0.03 0.03 63 1010.3
20260506214550 23 228 0.0 6.4 0.00 0.03 0.03 63 1010.2
20260506214050 23 250 1.6 6.4 0.00 0.03 0.03 63 1010.2
20260506213552 23 209 1.6 14.5 0.00 0.03 0.03 62 1010.1
20260506213050 23 240 3.2 14.5 0.00 0.03 0.03 62 1010.0
20260506212550 23 183 4.8 12.9 0.00 0.03 0.03 61 1010.0
20260506212050 23 191 1.6 12.9 0.00 0.03 0.03 62 1010.1
20260506211554 23 280 3.2 22.5 0.00 0.03 0.03 62 1010.2
20260506211046 23 231 3.2 22.5 0.00 0.03 0.03 62 1010.2
20260506210545 23 227 0.0 9.7 0.00 0.03 0.03 62 1010.2
20260506210044 23 257 3.2 9.7 0.00 0.03 0.03 61 1010.2
20260506205541 23 219 0.0 14.5 0.00 0.03 0.03 62 1010.1
20260506205040 23 211 1.6 8.0 0.00 0.03 0.03 62 1010.1
20260506204540 23 166 1.6 22.5 0.00 0.03 0.03 61 1010.0
20260506204038 23 207 6.4 22.5 0.00 0.03 0.03 61 1009.8
20260506203638 23 215 8.0 25.7 0.00 0.03 0.03 60 1009.8
20260506203034 23 227 11.3 25.7 0.00 0.03 0.03 60 1009.8
20260506202534 23 238 8.0 20.9 0.00 0.03 0.03 60 1009.8
20260506202033 23 227 1.6 14.5 0.00 0.03 0.03 61 1009.5
20260506201533 23 209 4.8 16.1 0.00 0.03 0.03 60 1009.5
20260506201032 23 254 8.0 16.1 0.00 0.03 0.03 61 1009.6
20260506200533 23 202 4.8 22.5 0.00 0.03 0.03 61 1009.7
20260506200128 22 230 6.4 22.5 0.00 0.03 0.03 61 1009.8
20260506195530 22 200 3.2 17.7 0.00 0.03 0.03 62 1010.0
20260506195025 22 195 3.2 17.7 0.00 0.03 0.03 61 1010.1
20260506194532 22 234 6.4 16.1 0.00 0.03 0.03 62 1009.9
20260506194025 22 221 6.4 25.7 0.00 0.03 0.03 61 1010.1
20260506193523 22 226 12.9 29.0 0.00 0.03 0.03 61 1010.1
20260506193021 22 198 9.7 29.0 0.00 0.03 0.03 62 1010.2
20260506192519 22 202 6.4 19.3 0.00 0.03 0.03 63 1010.3
20260506192019 22 179 6.4 19.3 0.00 0.03 0.03 63 1010.6
20260506191518 22 192 8.0 20.9 0.03 0.03 0.03 63 1010.8
20260506191017 22 209 9.7 20.9 0.03 0.03 0.03 63 1011.0
20260506190516 21 195 3.2 16.1 0.03 0.03 0.03 65 1011.2
20260506190014 21 193 3.2 9.7 0.03 0.03 0.03 66 1011.3
20260506185513 21 206 1.6 11.3 0.03 0.03 0.03 68 1011.3
20260506185012 21 184 3.2 14.5 0.03 0.03 0.03 66 1011.4
20260506184512 21 194 3.2 11.3 0.03 0.03 0.03 67 1011.5
20260506184013 21 182 0.0 11.3 0.03 0.03 0.03 67 1011.6
20260506183512 21 194 0.0 11.3 0.03 0.03 0.03 67 1011.9
20260506183012 21 170 1.6 11.3 0.03 0.03 0.03 65 1011.8
20260506182511 21 188 1.6 14.5 0.03 0.03 0.03 65 1011.9
20260506182014 22 284 1.6 12.9 0.03 0.03 0.03 64 1011.9
20260506181511 22 213 1.6 17.7 0.00 0.00 0.00 64 1011.9
20260506181011 22 170 3.2 17.7 0.00 0.00 0.00 62 1011.9
20260506180513 22 229 3.2 17.7 0.00 0.00 0.00 62 1012.1
20260506180010 22 215 4.8 17.7 0.00 0.00 0.00 63 1011.9
20260506175509 22 198 1.6 17.7 0.00 0.00 0.00 64 1011.8
20260506175009 22 221 9.7 19.3 0.00 0.00 0.00 63 1011.7
20260506174507 21 194 6.4 19.3 0.00 0.00 0.00 63 1011.7
20260506174006 21 215 9.7 24.1 0.00 0.00 0.00 63 1011.7
20260506173505 21 218 11.3 24.1 0.00 0.00 0.00 65 1011.7
20260506173004 21 216 4.8 14.5 0.00 0.00 0.00 66 1011.8
20260506172502 21 273 1.6 22.5 0.00 0.00 0.00 66 1011.7
20260506172002 21 188 12.9 22.5 0.00 0.00 0.00 65 1011.8
20260506171501 20 232 9.7 29.0 0.00 0.00 0.00 66 1011.7
20260506171001 20 212 11.3 29.0 0.00 0.00 0.00 66 1011.6
20260506170600 20 216 9.7 22.5 0.00 0.00 0.00 67 1011.7
20260506170109 20 221 6.4 24.1 0.00 0.00 0.00 68 1011.9
20260506165600 20 206 8.0 19.3 0.00 0.00 0.00 69 1012.1
20260506165058 20 221 8.0 19.3 0.00 0.00 0.00 68 1012.4
20260506164558 20 212 6.4 17.7 0.00 0.00 0.00 69 1012.4
20260506164058 20 216 8.0 17.7 0.00 0.00 0.00 70 1012.4
20260506163557 19 218 3.2 12.9 0.00 0.00 0.00 72 1012.5
20260506163057 19 198 4.8 11.3 0.00 0.00 0.00 71 1012.5
20260506162555 19 199 4.8 9.7 0.00 0.00 0.00 72 1012.7
20260506162055 19 186 3.2 12.9 0.00 0.00 0.00 72 1012.7
20260506161555 19 184 4.8 14.5 0.00 0.00 0.00 72 1013.0
20260506161054 19 217 1.6 14.5 0.00 0.00 0.00 72 1012.8
20260506160554 19 211 3.2 8.0 0.00 0.00 0.00 73 1012.9
20260506160108 19 203 0.0 11.3 0.00 0.00 0.00 73 1013.1
20260506155553 19 212 4.8 14.5 0.00 0.00 0.00 72 1013.1
20260506155054 19 238 6.4 14.5 0.00 0.00 0.00 73 1013.2
20260506154552 19 194 3.2 8.0 0.00 0.00 0.00 72 1013.3
20260506154054 19 200 0.0 9.7 0.00 0.00 0.00 72 1013.4
20260506153552 19 187 3.2 12.9 0.00 0.00 0.00 71 1013.4
20260506153053 19 203 3.2 12.9 0.00 0.00 0.00 70 1013.5
20260506152551 20 249 1.6 9.7 0.00 0.00 0.00 70 1013.6
20260506152052 20 230 1.6 11.3 0.00 0.00 0.00 70 1013.5
20260506151552 20 198 1.6 14.5 0.00 0.00 0.00 69 1013.6
20260506151051 20 216 4.8 14.5 0.00 0.00 0.00 68 1013.5
20260506150553 20 242 3.2 16.1 0.00 0.00 0.00 68 1013.6
20260506150052 20 248 6.4 16.1 0.00 0.00 0.00 66 1013.6
20260506145551 20 200 6.4 16.1 0.00 0.00 0.00 65 1013.5
20260506145050 20 225 8.0 20.9 0.00 0.00 0.00 65 1013.7
20260506144551 20 215 9.7 20.9 0.00 0.00 0.00 65 1014.0
20260506144048 20 204 6.4 12.9 0.00 0.00 0.00 65 1013.8
20260506143547 20 184 4.8 14.5 0.00 0.00 0.00 66 1013.6
20260506143047 20 202 3.2 19.3 0.00 0.00 0.00 66 1013.4
20260506142545 20 232 6.4 17.7 0.00 0.00 0.00 66 1013.2
20260506142047 20 219 6.4 17.7 0.00 0.00 0.00 67 1013.2
20260506141544 19 226 9.7 16.1 0.00 0.00 0.00 67 1013.2
20260506141044 19 209 8.0 16.1 0.00 0.00 0.00 67 1013.3